Retour au catalogue

DIWEI ZHINENG YINGJI 1

ActifScienceSSO
NORAD 57582·PAYLOAD·🇨🇳 China
Ce nom de satellite n'a pas encore été confirmé par des sources officielles.

Lancé Aug 10, 2023 depuis Jiuquan Satellite Launch Center

Loading…

Prochains Passages (prochaines 24 heures)

TLE

FraisSource: Space-Track

Époque: Sep 14, 2026, 13:19 UTC

1 57582U 23117C   26257.55506742  .00019616  00000-0  42666-3 0  9997
2 57582  97.4007 339.9720 0004763 268.0446  92.0257 15.44346020172340

Suivez DIWEI ZHINENG YINGJI 1 en temps réel avec AllMySat

Download on the App Store